H1 CPF 2 NER 2024 9 14 9 258 01 glonass116 H2 0907001 9116 36111 2024 9 14 0 0 0 2024 9 17 23 45 0 900 1 1 0 0 0 1 H9 10 0 60567 0.00000 0 -7813578.622 -12737176.255 20669366.115 10 0 60567 900.00000 0 -7564777.209 -15177726.960 19051791.547 10 0 60567 1800.00000 0 -7508381.058 -17408397.930 17064103.756 10 0 60567 2700.00000 0 -7613915.184 -19372129.005 14744937.479 10 0 60567 3600.00000 0 -7841521.294 -21020531.663 12139361.315 10 0 60567 4500.00000 0 -8143823.329 -22315732.310 9298001.449 10 0 60567 5400.00000 0 -8468120.957 -23231789.398 6276057.323 10 0 60567 6300.00000 0 -8758817.865 -23755625.774 3132228.326 10 0 60567 7200.00000 0 -8959981.718 -23887437.895 -72427.477 10 0 60567 8100.00000 0 -9017927.076 -23640565.513 -3275680.274 10 0 60567 9000.00000 0 -8883711.594 -23040828.009 -6415337.733 10 0 60567 9900.00000 0 -8515439.440 -22125355.962 -9430452.751 10 0 60567 10800.00000 0 -7880274.120 -20940967.705 -12262506.022 10 0 60567 11700.00000 0 -6956075.091 -19542159.574 -14856540.363 10 0 60567 12600.00000 0 -5732588.551 -17988794.689 -17162224.750 10 0 60567 13500.00000 0 -4212141.462 -16343587.468 -19134827.624 10 0 60567 14400.00000 0 -2409808.778 -14669489.367 -20736080.976 10 0 60567 15300.00000 0 -353045.845 -13027085.204 -21934918.913 10 0 60567 16200.00000 0 1919199.782 -11472108.675 -22708076.963 10 0 60567 17100.00000 0 4357861.266 -10053180.402 -23040541.047 10 0 60567 18000.00000 0 6905554.207 -8809862.453 -22925837.864 10 0 60567 18900.00000 0 9498733.455 -7771109.882 -22366161.317 10 0 60567 19800.00000 0 12070116.629 -6954183.311 -21372332.578 10 0 60567 20700.00000 0 14551274.710 -6364067.358 -19963594.338 10 0 60567 21600.00000 0 16875283.074 -5993418.662 -18167242.804 10 0 60567 22500.00000 0 18979323.521 -5823045.219 -16018103.924 10 0 60567 23400.00000 0 20807129.590 -5822896.554 -13557863.299 10 0 60567 24300.00000 0 22311173.622 -5953522.790 -10834262.057 10 0 60567 25200.00000 0 23454504.496 -6167940.949 -7900173.644 10 0 60567 26100.00000 0 24212159.237 -6413829.485 -4812579.039 10 0 60567 27000.00000 0 24572089.335 -6635957.992 -1631460.081 10 0 60567 27900.00000 0 24535562.851 -6778748.919 1581367.559 10 0 60567 28800.00000 0 24117025.365 -6788862.208 4763458.752 10 0 60567 29700.00000 0 23343425.638 -6617692.691 7852956.720 10 0 60567 30600.00000 0 22253034.475 -6223673.551 10789800.029 10 0 60567 31500.00000 0 20893806.694 -5574287.336 13516894.598 10 0 60567 32400.00000 0 19321355.471 -4647698.352 15981227.369 10 0 60567 33300.00000 0 17596624.545 -3433936.321 18134899.579 10 0 60567 34200.00000 0 15783356.494 -1935580.194 19936059.240 10 0 60567 35100.00000 0 13945463.622 -167912.193 21349714.678 10 0 60567 36000.00000 0 12144411.852 1841465.534 22348413.498 10 0 60567 36900.00000 0 10436727.225 4053536.621 22912774.037 10 0 60567 37800.00000 0 8871729.107 6419261.605 23031859.399 10 0 60567 38700.00000 0 7489584.471 8881397.280 22703387.194 10 0 60567 39600.00000 0 6319763.922 11376669.137 21933771.254 10 0 60567 40500.00000 0 5379963.170 13838207.054 20737994.778 10 0 60567 41400.00000 0 4675534.021 16198143.421 19139317.452 10 0 60567 42300.00000 0 4199447.619 18390265.996 17168822.260 10 0 60567 43200.00000 0 3932790.306 20352615.435 14864810.658 10 0 60567 44100.00000 0 3845770.135 22029919.669 12272057.692 10 0 60567 45000.00000 0 3899190.665 23375763.891 9440941.370 10 0 60567 45900.00000 0 4046328.956 24354405.918 6426463.119 10 0 60567 46800.00000 0 4235137.715 24942161.406 3287178.286 10 0 60567 47700.00000 0 4410677.833 25128301.324 84057.614 10 0 60567 48600.00000 0 4517677.828 24915424.543 -3120698.008 10 0 60567 49500.00000 0 4503111.389 24319290.392 -6264866.255 10 0 60567 50400.00000 0 4318683.451 23368118.699 -9287411.719 10 0 60567 51300.00000 0 3923119.167 22101387.169 -12129670.250 10 0 60567 52200.00000 0 3284158.536 20568176.958 -14736486.127 10 0 60567 53100.00000 0 2380171.908 18825136.168 -17057279.998 10 0 60567 54000.00000 0 1201327.632 16934146.777 -19047027.053 10 0 60567 54900.00000 0 -249738.086 14959792.682 -20667126.825 10 0 60567 55800.00000 0 -1957778.112 12966734.600 -21886148.201 10 0 60567 56700.00000 0 -3895325.177 11017101.133 -22680435.768 10 0 60567 57600.00000 0 -6023601.318 9168004.342 -23034566.306 10 0 60567 58500.00000 0 -8293909.275 7469282.806 -22941646.983 10 0 60567 59400.00000 0 -10649449.109 5961565.493 -22403449.805 10 0 60567 60300.00000 0 -13027485.667 4674736.305 -21430379.738 10 0 60567 61200.00000 0 -15361777.878 3626862.561 -20041276.921 10 0 60567 62100.00000 0 -17585169.820 2823631.332 -18263056.415 10 0 60567 63000.00000 0 -19632236.556 2258316.478 -16130191.807 10 0 60567 63900.00000 0 -21441875.104 1912277.115 -13684051.998 10 0 60567 64800.00000 0 -22959732.854 1755966.052 -10972103.312 10 0 60567 65700.00000 0 -24140372.141 1750405.284 -8046991.736 10 0 60567 66600.00000 0 -24949080.352 1849065.931 -4965522.692 10 0 60567 67500.00000 0 -25363249.512 2000072.794 -1787557.909 10 0 60567 68400.00000 0 -25373267.194 2148639.812 1425149.154 10 0 60567 69300.00000 0 -24982881.006 2239632.761 4610156.371 10 0 60567 70200.00000 0 -24209021.050 2220149.905 7705550.642 10 0 60567 71100.00000 0 -23081087.666 2042010.487 10651155.951 10 0 60567 72000.00000 0 -21639734.329 1664044.700 13389707.604 10 0 60567 72900.00000 0 -19935196.931 1054087.222 15867969.262 10 0 60567 73800.00000 0 -18025239.781 190588.950 18037770.614 10 0 60567 74700.00000 0 -15972804.721 -936222.195 19856945.209 10 0 60567 75600.00000 0 -13843462.121 -2323681.409 21290150.213 10 0 60567 76500.00000 0 -11702770.561 -3956556.923 22309552.277 10 0 60567 77400.00000 0 -9613655.641 -5807456.169 22895366.494 10 0 60567 78300.00000 0 -7633917.210 -7837752.125 23036238.332 10 0 60567 79200.00000 0 -5813968.662 -9998991.976 22729461.555 10 0 60567 80100.00000 0 -4194902.007 -12234730.003 21981028.205 10 0 60567 81000.00000 0 -2806958.601 -14482708.872 20805509.943 10 0 60567 81900.00000 0 -1668468.301 -16677298.945 19225773.167 10 0 60567 82800.00000 0 -785300.191 -18752094.332 17272533.416 10 0 60567 83700.00000 0 -150846.549 -20642557.781 14983757.655 10 0 60567 84600.00000 0 253460.621 -22288604.345 12403925.827 10 0 60567 85500.00000 0 457123.469 -23637016.113 9583165.930 10 0 60568 0.00000 0 499087.006 -24643587.198 6576279.547 10 0 60568 900.00000 0 425846.558 -25274909.860 3441675.105 10 0 60568 1800.00000 0 289234.817 -25509725.825 240233.777 10 0 60568 2700.00000 0 143982.848 -25339788.163 -2965875.152 10 0 60568 3600.00000 0 45158.844 -24770196.315 -6114402.165 10 0 60568 4500.00000 0 45593.600 -23819191.069 -9144226.474 10 0 60568 5400.00000 0 193402.123 -22517418.195 -11996542.063 10 0 60568 6300.00000 0 529706.635 -20906691.835 -14615997.676 10 0 60568 7200.00000 0 1086657.626 -19038309.623 -16951768.579 10 0 60568 8100.00000 0 1885836.971 -16970990.168 -18958539.508 10 0 60568 9000.00000 0 2937110.951 -14768519.045 -20597380.089 10 0 60568 9900.00000 0 4237982.142 -12497201.454 -21836496.208 10 0 60568 10800.00000 0 5773468.205 -10223227.412 -22651843.349 10 0 60568 11700.00000 0 7516513.669 -8010058.711 -23027590.541 10 0 60568 12600.00000 0 9428918.573 -5915945.804 -22956426.391 10 0 60568 13500.00000 0 11462746.393 -3991677.098 -22439701.553 10 0 60568 14400.00000 0 13562153.746 -2278653.475 -21487404.929 10 0 60568 15300.00000 0 15665566.727 -807367.248 -20117973.881 10 0 60568 16200.00000 0 17708114.260 403651.935 -18357941.721 10 0 60568 17100.00000 0 19624217.882 1348381.187 -16241428.677 10 0 60568 18000.00000 0 21350230.537 2033316.497 -13809485.546 10 0 60568 18900.00000 0 22827014.599 2476953.136 -11109301.995 10 0 60568 19800.00000 0 24002351.448 2708756.836 -8193294.256 10 0 60568 20700.00000 0 24833081.592 2767669.638 -5118089.468 10 0 60568 21600.00000 0 25286885.296 2700214.018 -1943426.159 10 0 60568 22500.00000 0 25343628.526 2558275.959 1269007.787 10 0 60568 23400.00000 0 24996217.101 2396661.375 4456776.769 10 0 60568 24300.00000 0 24250922.642 2270530.031 7557914.920 10 0 60568 25200.00000 0 23127166.081 2232816.444 10512135.109 10 0 60568 26100.00000 0 21656767.502 2331747.840 13262005.313 10 0 60568 27000.00000 0 19882693.543 2608565.165 15754068.934 10 0 60568 27900.00000 0 17857354.842 3095544.499 17939886.808 10 0 60568 28800.00000 0 15640524.889 3814403.432 19776980.380 10 0 60568 29700.00000 0 13296967.476 4775160.588 21229657.619 10 0 60568 30600.00000 0 10893871.956 5975497.261 22269705.804 10 0 60568 31500.00000 0 8498203.423 7400648.896 22876937.928 10 0 60568 32400.00000 0 6174078.137 9023831.801 23039582.534 10 0 60568 33300.00000 0 3980273.248 10807188.019 22754509.766 10 0 60568 34200.00000 0 1967973.981 12703209.461 22027289.619 10 0 60568 35100.00000 0 178851.349 14656582.426 20872081.475 10 0 60568 36000.00000 0 -1356450.522 16606375.936 19311357.228 10 0 60568 36900.00000 0 -2619355.540 18488482.884 17375463.345 10 0 60568 37800.00000 0 -3603883.108 20238212.336 15102030.300 10 0 60568 38700.00000 0 -4316641.278 21792924.843 12535240.649 10 0 60568 39600.00000 0 -4776287.281 23094600.674 9724969.856 10 0 60568 40500.00000 0 -5012479.512 24092233.501 6725816.418 10 0 60568 41400.00000 0 -5064366.366 24743949.266 3596040.120 10 0 60568 42300.00000 0 -4978676.782 25018761.338 396429.154 10 0 60568 43200.00000 0 -4807494.128 24897888.277 -2810881.688 10 0 60568 44100.00000 0 -4605808.343 24375578.867 -5963618.549 10 0 60568 45000.00000 0 -4428950.545 23459409.736 -9000577.991 10 0 60568 45900.00000 0 -4330019.180 22170043.077 -11862814.689 10 0 60568 46800.00000 0 -4357406.980 20540454.575 -14494784.180 10 0 60568 47700.00000 0 -4552533.626 18614663.846 -16845418.421 10 0 60568 48600.00000 0 -4947880.201 16446020.397 -18869113.495 10 0 60568 49500.00000 0 -5565408.678 14095116.511 -20526610.669 10 0 60568 50400.00000 0 -6415433.452 11627413.884 -21785754.132 10 0 60568 51300.00000 0 -7495992.921 9110682.441 -22622111.322 10 0 60568 52200.00000 0 -8792748.213 6612357.359 -23019444.354 10 0 60568 53100.00000 0 -10279414.166 4196923.509 -22970023.840 10 0 60568 54000.00000 0 -11918705.495 1923435.178 -22474779.366 10 0 60568 54900.00000 0 -13663759.694 -156726.780 -21543283.739 10 0 60568 55800.00000 0 -15459978.289 -2001768.067 -20193571.162 10 0 60568 56700.00000 0 -17247210.556 -3580985.733 -18451792.477 10 0 60568 57600.00000 0 -18962189.419 -4875802.901 -16351713.506 10 0 60568 58500.00000 0 -20541118.378 -5880291.120 -13934065.583 10 0 60568 59400.00000 0 -21922301.717 -6601159.375 -11245760.121 10 0 60568 60300.00000 0 -23048708.018 -7057210.967 -8338981.779 10 0 60568 61200.00000 0 -23870359.412 -7278291.808 -5270177.417 10 0 60568 62100.00000 0 -24346445.910 -7303775.095 -2098960.188 10 0 60568 63000.00000 0 -24447075.447 -7180646.937 1113049.936 10 0 60568 63900.00000 0 -24154585.348 -6961274.509 4303426.395 10 0 60568 64800.00000 0 -23464359.290 -6700951.854 7410153.233 10 0 60568 65700.00000 0 -22385114.664 -6455327.946 10372835.019 10 0 60568 66600.00000 0 -20938647.552 -6277826.734 13133875.304 10 0 60568 67500.00000 0 -19159045.500 -6217169.169 15639600.133 10 0 60568 68400.00000 0 -17091400.671 -6315102.889 17841304.316 10 0 60568 69300.00000 0 -14790077.035 -6604436.304 19696199.810 10 0 60568 70200.00000 0 -12316603.930 -7107460.883 21168247.737 10 0 60568 71100.00000 0 -9737283.839 -7834828.858 22228857.977 10 0 60568 72000.00000 0 -7120614.077 -8784934.294 22857443.000 10 0 60568 72900.00000 0 -4534629.618 -9943824.184 23041815.561 10 0 60568 73800.00000 0 -2044277.299 -11285643.893 22778422.906 10 0 60568 74700.00000 0 291069.789 -12773598.814 22072413.289 10 0 60568 75600.00000 0 2419855.062 -14361392.431 20937533.744 10 0 60568 76500.00000 0 4300245.936 -15995081.020 19395861.228 10 0 60568 77400.00000 0 5901627.648 -17615267.656 17477372.353 10 0 60568 78300.00000 0 7205622.424 -19159543.940 15219359.971 10 0 60568 79200.00000 0 8206592.757 -20565077.360 12665707.777 10 0 60568 80100.00000 0 8911609.207 -21771235.913 9866036.884 10 0 60568 81000.00000 0 9339885.503 -22722139.900 6874740.857 10 0 60568 81900.00000 0 9521706.103 -23369033.740 3749927.886 10 0 60568 82800.00000 0 9496892.635 -23672378.016 552290.826 10 0 60568 83700.00000 0 9312875.052 -23603573.689 -2656072.815 10 0 60568 84600.00000 0 9022449.921 -23146245.786 -5812867.735 10 0 60568 85500.00000 0 8681321.357 -22297032.375 -8856810.792 10 0 60569 0.00000 0 8345529.225 -21065845.579 -11728820.066 10 0 60569 900.00000 0 8068873.610 -19475592.661 -14373161.319 10 0 60569 1800.00000 0 7900445.164 -17561370.317 -16738525.747 10 0 60569 2700.00000 0 7882365.232 -15369163.373 -18779023.432 10 0 60569 3600.00000 0 8047831.736 -12954103.420 -20455069.681 10 0 60569 4500.00000 0 8419553.158 -10378359.009 -21734149.075 10 0 60569 5400.00000 0 9008636.797 -7708744.781 -22591442.736 10 0 60569 6300.00000 0 9813978.411 -5014148.324 -23010307.174 10 0 60569 7200.00000 0 10822179.354 -2362880.904 -22982595.930 10 0 60569 8100.00000 0 12007995.373 179938.781 -22508818.039 10 0 60569 9000.00000 0 13335299.071 2554860.190 -21598130.371 10 0 60569 9900.00000 0 14758516.601 4710334.013 -20268163.794 10 0 60569 10800.00000 0 16224479.399 6604610.915 -18544686.160 10 0 60569 11700.00000 0 17674614.248 8207227.936 -16461108.046 10 0 60569 12600.00000 0 19047380.669 9500021.468 -14057840.139 10 0 60569 13500.00000 0 20280853.963 10477625.377 -11381514.038 10 0 60569 14400.00000 0 21315345.787 11147434.234 -8484080.891 10 0 60569 15300.00000 0 22095952.172 11529033.896 -5421804.968 10 0 60569 16200.00000 0 22574921.562 11653124.118 -2254171.402 10 0 60569 17100.00000 0 22713742.682 11559979.254 957270.671 10 0 60569 18000.00000 0 22484863.591 11297512.674 4150106.839 10 0 60569 18900.00000 0 21872968.657 10919027.415 7262274.252 10 0 60569 19800.00000 0 20875758.747 10480748.874 10233272.378 10 0 60569 20700.00000 0 19504200.852 10039244.703 13005343.456 10 0 60569 21600.00000 0 17782235.839 9648841.780 15524599.140 10 0 60569 22500.00000 0 15745955.813 9359150.237 17742070.979 10 0 60569 23400.00000 0 13442285.002 9212799.828 19614663.979 10 0 60569 24300.00000 0 10927218.895 9243484.833 21105994.670 10 0 60569 25200.00000 0 8263694.800 9474400.497 22187097.475 10 0 60569 26100.00000 0 5519182.366 9917137.274 22836985.921 10 0 60569 27000.00000 0 2763094.085 10571079.844 23043058.135 10 0 60569 27900.00000 0 64123.142 11423336.439 22801339.162 10 0 60569 28800.00000 0 -2512381.169 12449201.781 22116555.699 10 0 60569 29700.00000 0 -4906892.007 13613134.405 21002042.076 10 0 60569 30600.00000 0 -7067935.272 14870207.646 19479479.428 10 0 60569 31500.00000 0 -8953979.770 16167973.587 17578473.125 10 0 60569 32400.00000 0 -10534909.658 17448661.909 15335976.567 10 0 60569 33300.00000 0 -11793019.007 18651621.463 12795572.399 10 0 60569 34200.00000 0 -12723488.238 19715902.052 10006624.932 10 0 60569 35100.00000 0 -13334323.892 20582867.846 7023320.154 10 0 60569 36000.00000 0 -13645765.651 21198732.442 3903611.915 10 0 60569 36900.00000 0 -13689186.857 21516908.674 708094.916 10 0 60569 37800.00000 0 -13505536.046 21500074.005 -2501173.453 10 0 60569 38700.00000 0 -13143386.317 21121864.241 -5661879.252 10 0 60569 39600.00000 0 -12656675.745 20368123.914 -8712662.384 10 0 60569 40500.00000 0 -12102234.999 19237660.332 -11594307.450 10 0 60569 41400.00000 0 -11537207.116 17742469.154 -14250891.859 10 0 60569 42300.00000 0 -11016468.705 15907421.556 -16630868.814 10 0 60569 43200.00000 0 -10590161.618 13769425.517 -18688064.388 10 0 60569 44100.00000 0 -10301439.209 11376095.708 -20382569.652 10 0 60569 45000.00000 0 -10184522.124 8783986.832 -21681511.037 10 0 60569 45900.00000 0 -10263145.423 6056463.288 -22559684.531 10 0 60569 46800.00000 0 -10549462.334 3261292.946 -23000041.965 10 0 60569 47700.00000 0 -11043450.831 468064.141 -22994020.438 10 0 60569 48600.00000 0 -11732848.203 -2254467.834 -22541708.782 10 0 60569 49500.00000 0 -12593616.795 -4840995.628 -21651847.956 10 0 60569 50400.00000 0 -13590921.955 -7232128.590 -20341665.192 10 0 60569 51300.00000 0 -14680581.819 -9376613.835 -18636544.735 10 0 60569 52200.00000 0 -15810928.840 -11233218.252 -16569540.982 10 0 60569 53100.00000 0 -16925005.530 -12772193.943 -14180742.772 10 0 60569 54000.00000 0 -17963002.719 -13976266.773 -11516500.443 10 0 60569 54900.00000 0 -18864838.146 -14841107.463 -8628529.996 10 0 60569 55800.00000 0 -19572766.900 -15375266.150 -5572911.296 10 0 60569 56700.00000 0 -20033913.596 -15599573.815 -2408999.482 10 0 60569 57600.00000 0 -20202619.056 -15546036.390 801729.291 10 0 60569 58500.00000 0 -20042501.831 -15256268.785 3996875.074 10 0 60569 59400.00000 0 -19528146.717 -14779535.574 7114330.630 10 0 60569 60300.00000 0 -18646348.052 -14170481.777 10093492.996 10 0 60569 61200.00000 0 -17396854.313 -13486650.330 12876445.897 10 0 60569 62100.00000 0 -15792581.627 -12785891.875 15409089.458 10 0 60569 63000.00000 0 -13859286.214 -12123776.941 17642194.794 10 0 60569 63900.00000 0 -11634708.612 -11551120.405 19532362.667 10 0 60569 64800.00000 0 -9167224.789 -11111723.155 21042867.498 10 0 60569 65700.00000 0 -6514059.829 -10840426.552 22144370.438 10 0 60569 66600.00000 0 -3739138.247 -10761561.849 22815487.896 10 0 60569 67500.00000 0 -910659.952 -10887859.969 23043204.816 10 0 60569 68400.00000 0 1901497.762 -11219867.527 22823125.077 10 0 60569 69300.00000 0 4628444.672 -11745893.601 22159554.469 10 0 60569 70200.00000 0 7204898.436 -12442489.449 21065414.884 10 0 60569 71100.00000 0 9571653.541 -13275440.975 19561991.529 10 0 60569 72000.00000 0 11677796.512 -14201232.147 17678518.044 10 0 60569 72900.00000 0 13482576.162 -15168917.845 15451607.523 10 0 60569 73800.00000 0 14956851.991 -16122327.318 12924540.293 10 0 60569 74700.00000 0 16084061.425 -17002505.426 10146422.192 10 0 60569 75600.00000 0 16860666.689 -17750288.790 7171229.550 10 0 60569 76500.00000 0 17296063.865 -18308908.123 4056759.417 10 0 60569 77400.00000 0 17411959.220 -18626506.820 863505.569 10 0 60569 78300.00000 0 17241240.227 -18658469.301 -2346517.727 10 0 60569 79200.00000 0 16826389.938 -18369460.583 -5510981.046 10 0 60569 80100.00000 0 16217512.494 -17735090.658 -8568450.528 10 0 60569 81000.00000 0 15470053.835 -16743133.072 -11459580.219 10 0 60569 81900.00000 0 14642314.354 -15394245.868 -14128262.760 10 0 60569 82800.00000 0 13792858.785 -13702163.955 -16522716.016 10 0 60569 83700.00000 0 12977932.707 -11693354.134 -18596484.752 10 0 60569 84600.00000 0 12248994.501 -9406146.441 -20309338.250 10 0 60569 85500.00000 0 11650466.529 -6889377.248 -21628046.917 10 0 60570 0.00000 0 11217799.901 -4200600.056 -22527023.301 10 0 60570 900.00000 0 10975933.716 -1403935.992 -22988816.075 10 0 60570 1800.00000 0 10938213.785 1432344.029 -23004446.732 10 0 60570 2700.00000 0 11105815.328 4238410.912 -22573584.428 10 0 60570 3600.00000 0 11467694.498 6945532.732 -21704554.341 10 0 60570 4500.00000 0 12001070.646 9488686.063 -20414179.823 10 0 60570 5400.00000 0 12672419.455 11809015.636 -18727460.924 10 0 60570 6300.00000 0 13438935.596 13856041.038 -16677094.932 10 0 60570 7200.00000 0 14250403.899 15589519.402 -14302847.565 10 0 60570 8100.00000 0 15051400.698 16980887.195 -11650786.299 10 0 60570 9000.00000 0 15783732.949 18014221.513 -8772390.037 10 0 60570 9900.00000 0 16389012.405 18686681.197 -5723551.960 10 0 60570 10800.00000 0 16811256.132 19008409.818 -2563494.640 10 0 60570 11700.00000 0 16999403.181 19001905.098 646381.560 10 0 60570 12600.00000 0 16909640.521 18700881.838 3843694.135 10 0 60570 13500.00000 0 16507439.109 18148676.834 6966294.511 10 0 60570 14400.00000 0 15769213.124 17396263.641 9953480.345 10 0 60570 15300.00000 0 14683531.203 16499961.623 12747179.822 10 0 60570 16200.00000 0 13251827.451 15518936.582 15293084.383 10 0 60570 17100.00000 0 11488581.109 14512599.068 17541707.390 10 0 60570 18000.00000 0 9420956.251 13538010.616 19449347.830 10 0 60570 18900.00000 0 7087915.595 12647407.668 20978940.240 10 0 60570 19800.00000 0 4538844.603 11885947.699 22100774.450 10 0 60570 20700.00000 0 1831742.582 11289772.528 22793071.366 10 0 60570 21600.00000 0 -968944.495 10884470.181 23042403.967 10 0 60570 22500.00000 0 -3794759.855 10683999.738 22843955.748 10 0 60570 23400.00000 0 -6575839.736 10690124.044 22201611.861 10 0 60570 24300.00000 0 -9243577.547 10892373.722 21127881.505 10 0 60570 25200.00000 0 -11733238.270 11268543.600 19643653.145 10 0 60570 26100.00000 0 -13986415.128 11785700.309 17777787.360 10 0 60570 27000.00000 0 -15953227.062 12401658.276 15566555.122 10 0 60570 27900.00000 0 -17594166.369 13066861.725 13052932.247 10 0 60570 28800.00000 0 -18881520.335 13726593.048 10285763.605 10 0 60570 29700.00000 0 -19800308.489 14323414.234 7318813.194 10 0 60570 30600.00000 0 -20348697.328 14799738.036 4209718.491 10 0 60570 31500.00000 0 -20537876.200 15100420.051 1018869.536 10 0 60570 32400.00000 0 -20391400.644 15175261.915 -2191765.322 10 0 60570 33300.00000 0 -19944031.852 14981319.497 -5359843.926 10 0 60570 34200.00000 0 -19240122.012 14484918.207 -8423861.347 10 0 60570 35100.00000 0 -18331614.370 13663289.864 -11324343.678 10 0 60570 36000.00000 0 -17275742.873 12505761.531 -14005001.255 10 0 60570 36900.00000 0 -16132528.725 11014445.612 -16413818.881 10 0 60570 37800.00000 0 -14962179.476 9204401.444 -18504062.050 10 0 60570 38700.00000 0 -13822500.054 7103260.704 -20235180.010 10 0 60570 39600.00000 0 -12766424.419 4750331.364 -21573588.574 10 0 60570 40500.00000 0 -11839771.159 2195216.548 -22493318.076 10 0 60570 41400.00000 0 -11079316.778 -503995.289 -22976514.458 10 0 60570 42300.00000 0 -10511267.039 -3282894.703 -23013784.228 10 0 60570 43200.00000 0 -10150189.988 -6073181.329 -22604376.935 10 0 60570 44100.00000 0 -9998455.026 -8805259.979 -21756201.716 10 0 60570 45000.00000 0 -10046201.304 -11410896.035 -20485677.463 10 0 60570 45900.00000 0 -10271836.634 -13825820.896 -18817419.145 10 0 60570 46800.00000 0 -10643046.029 -15992180.130 -16783765.799 10 0 60570 47700.00000 0 -11118267.524 -17860723.194 -14424158.668 10 0 60570 48600.00000 0 -11648573.394 -19392644.125 -11784380.839 10 0 60570 49500.00000 0 -12179877.570 -20560996.880 -8915672.479 10 0 60570 50400.00000 0 -12655376.203 -21351626.507 -5873738.370 10 0 60570 51300.00000 0 -13018118.154 -21763577.507 -2717666.725 10 0 60570 52200.00000 0 -13213596.449 -21808962.540 491219.743 10 0 60570 53100.00000 0 -13192250.563 -21512297.344 3690557.929 10 0 60570 54000.00000 0 -12911772.910 -20909330.259 6818160.006 10 0 60570 54900.00000 0 -12339121.081 -20045416.081 9813226.466 10 0 60570 55800.00000 0 -11452149.663 -18973503.325 12617532.300 10 0 60570 56700.00000 0 -10240791.577 -17751820.251 15176562.696 10 0 60570 57600.00000 0 -8707737.908 -16441357.699 17440575.726 10 0 60570 58500.00000 0 -6868586.381 -15103255.241 19365571.014 10 0 60570 59400.00000 0 -4751451.110 -13796201.034 20914145.510 10 0 60570 60300.00000 0 -2396048.856 -12573954.924 22056219.814 10 0 60570 61200.00000 0 147700.925 -11483098.935 22769621.162 10 0 60570 62100.00000 0 2821504.701 -10561109.434 23040512.118 10 0 60570 63000.00000 0 5560876.718 -9834831.525 22863657.005 10 0 60570 63900.00000 0 8297583.930 -9319419.172 22242521.231 10 0 60570 64800.00000 0 10962252.981 -9017784.904 21189201.849 10 0 60570 65700.00000 0 13487031.453 -8920581.453 19724190.793 10 0 60570 66600.00000 0 15808193.283 -9006715.414 17875975.436 10 0 60570 67500.00000 0 17868580.579 -9244370.582 15680484.107 10 0 60570 68400.00000 0 19619780.795 -9592497.277 13180387.189 10 0 60570 69300.00000 0 21023949.140 -10002704.293 10424267.235 10 0 60570 70200.00000 0 22055200.884 -10421473.178 7465674.116 10 0 60570 71100.00000 0 22700516.146 -10792600.891 4362083.506 10 0 60570 72000.00000 0 22960120.096 -11059767.191 1173779.088 10 0 60570 72900.00000 0 22847323.519 -11169117.833 -2037319.647 10 0 60570 73800.00000 0 22387831.320 -11071753.926 -5208860.971 10 0 60570 74700.00000 0 21618548.859 -10726021.763 -8279272.156 10 0 60570 75600.00000 0 20585937.081 -10099505.893 -11188954.608 10 0 60570 76500.00000 0 19343986.224 -9170640.718 -13881439.551 10 0 60570 77400.00000 0 17951893.776 -7929872.054 -16304481.755 10 0 60570 78300.00000 0 16471544.542 -6380318.975 -18411070.276 10 0 60570 79200.00000 0 14964898.657 -4537907.273 -20160336.908 10 0 60570 80100.00000 0 13491397.043 -2430967.935 -21518345.170 10 0 60570 81000.00000 0 12105492.686 -99316.312 -22458745.087 10 0 60570 81900.00000 0 10854410.668 2407150.785 -22963281.633 10 0 60570 82800.00000 0 9776230.115 5030282.858 -23022147.418 10 0 60570 83700.00000 0 8898367.686 7705853.564 -22634173.145 10 0 60570 84600.00000 0 8236525.406 10365999.391 -21806852.234 10 0 60570 85500.00000 0 7794146.348 12941818.934 -20556198.995 99